Location: ??????-???
(48.4261°N, 37.7652°E)
Time: 05:00:05
(UTC+00:00)

BREEZE-M R/B - Pass Details

Date: 07 June 2020
Orbit: 311 x 4533 km, 49.7° (Epoch: 03 July)

Event Time Altitude Azimuth Distance (km) Brightness Sun altitude
Rises 00:35:32 0° 285° (WNW) 3,097 6.4 -7.4°
Reaches altitude 10° 00:38:28 10° 284° (WNW) 1,763 5.1 -7.0°
Maximum altitude 00:42:00 72° 200° (SSW) 397 1.9 -6.6°
Drops below altitude 10° 00:44:28 10° 115° (ESE) 1,229 4.9 -6.3°
Sets 00:46:10 0° 113° (ESE) 2,027 6.0 -6.1°
